Location: Dumpton Point
(51.3500°N, 1.4433°E)
Time: 18:19:31
(UTC+00:00)

Transit 4A - All Passes

Search period start: 19 April 2021 00:00
Search period end: 29 April 2021 00:00
Orbit: 869 x 975 km, 66.8° (Epoch: 18 April)

Date Brightness Start Highest point End Pass type
(mag) Time Alt. Az. Time Alt. Az. Time Alt. Az.
19 Apr - 00:46:29 10° SW 00:52:38 61° NW 00:58:39 10° NE visible
19 Apr - 02:35:18 10° WNW 02:40:12 24° NNW 02:45:00 10° NNE visible
19 Apr - 04:24:35 10° NW 04:28:44 18° N 04:32:48 10° NE daylight
19 Apr - 06:11:44 10° NNW 06:17:01 31° NNE 06:22:12 10° E daylight
19 Apr - 07:58:05 10° NW 08:04:02 83° SW 08:09:52 10° SSE daylight
19 Apr - 09:45:47 10° WNW 09:49:29 17° WSW 09:53:09 10° SW daylight
19 Apr - 23:09:43 10° S 23:15:39 47° ESE 23:21:28 10° NE visible
20 Apr - 00:56:07 10° WSW 01:02:06 47° NW 01:07:57 10° NNE visible
20 Apr - 02:45:21 10° WNW 02:49:56 21° NNW 02:54:26 10° NNE visible
20 Apr - 04:34:16 10° NW 04:38:32 19° N 04:42:44 10° NE daylight
20 Apr - 06:21:03 10° NNW 06:26:37 38° NE 06:32:02 10° ESE daylight
20 Apr - 08:07:28 10° NW 08:13:18 61° WSW 08:19:00 10° SSE daylight
20 Apr - 09:56:32 10° W 09:58:24 12° W 10:00:16 10° WSW daylight
20 Apr - 21:36:40 10° SE 21:39:36 14° ESE 21:42:30 10° ENE visible
20 Apr - 23:18:43 10° SSW 23:24:52 65° ESE 23:30:54 10° NE visible
21 Apr - 01:05:54 10° WSW 01:11:37 38° NW 01:17:14 10° NNE visible
21 Apr - 02:55:24 10° NW 02:59:43 19° N 03:03:57 10° NE visible
21 Apr - 04:43:48 10° NNW 04:48:18 21° NNE 04:52:44 10° ENE daylight
21 Apr - 06:30:21 10° NNW 06:36:07 48° NE 06:41:46 10° ESE daylight
21 Apr - 08:16:54 10° NW 08:22:28 43° WSW 08:27:55 10° S daylight
21 Apr - 21:44:14 10° SSE 21:48:33 20° ESE 21:52:49 10° ENE visible
21 Apr - 23:27:54 10° SW 23:34:09 86° SE 23:40:15 10° NE visible
22 Apr - 01:15:47 10° W 01:21:13 31° NNW 01:26:32 10° NNE visible
22 Apr - 03:05:22 10° NW 03:09:31 18° N 03:13:35 10° NE visible
22 Apr - 04:53:15 10° NNW 04:58:03 24° NNE 05:02:44 10° ENE daylight
22 Apr - 06:39:39 10° NW 06:45:34 63° NE 06:51:21 10° SE daylight
22 Apr - 08:26:30 10° NW 08:31:35 31° WSW 08:36:35 10° S daylight
22 Apr - 21:52:26 10° SSE 21:57:35 28° ESE 22:02:39 10° NE visible
22 Apr - 23:37:17 10° SW 23:43:30 72° NW 23:49:35 10° NE visible
23 Apr - 01:25:46 10° W 01:30:52 26° NNW 01:35:52 10° NNE visible
23 Apr - 03:15:15 10° NW 03:19:19 18° N 03:23:21 10° NE visible
23 Apr - 05:02:39 10° NNW 05:07:44 28° NNE 05:12:43 10° E daylight
23 Apr - 06:48:59 10° NW 06:54:57 83° NE 07:00:47 10° SE daylight
23 Apr - 08:36:15 10° WNW 08:40:37 22° WSW 08:44:56 10° SSW daylight
23 Apr - 22:01:00 10° S 22:06:41 39° ESE 22:12:16 10° NE visible
23 Apr - 23:46:50 10° WSW 23:52:55 56° NW 23:58:53 10° NE visible
24 Apr - 01:35:49 10° WNW 01:40:34 23° NNW 01:45:15 10° NNE visible
24 Apr - 03:24:59 10° NW 03:29:08 19° N 03:33:14 10° NE visible
24 Apr - 05:11:59 10° NNW 05:17:21 33° NNE 05:22:37 10° E daylight
24 Apr - 06:58:20 10° NW 07:04:15 74° WSW 07:10:02 10° SSE daylight
24 Apr - 08:46:23 10° WNW 08:49:35 15° WSW 08:52:45 10° SW daylight
24 Apr - 20:29:57 10° ESE 20:30:47 10° E 20:31:36 10° E visible
24 Apr - 22:09:50 10° SSW 22:15:51 53° ESE 22:21:45 10° NE visible
24 Apr - 23:56:32 10° WSW 00:02:24 44° NW 00:08:09 10° NNE visible
25 Apr - 01:45:52 10° WNW 01:50:20 20° NNW 01:54:42 10° NNE visible
25 Apr - 03:34:36 10° NNW 03:38:56 20° NNE 03:43:11 10° ENE visible
25 Apr - 05:21:17 10° NNW 05:26:55 41° NE 05:32:25 10° ESE daylight
25 Apr - 07:07:44 10° NW 07:13:29 54° WSW 07:19:06 10° SSE daylight
25 Apr - 20:36:12 10° SE 20:39:42 16° ESE 20:43:09 10° ENE visible
25 Apr - 22:18:54 10° SSW 22:25:06 72° ESE 22:31:09 10° NE visible
26 Apr - 00:06:21 10° W 00:11:57 35° NW 00:17:27 10° NNE visible
26 Apr - 01:55:54 10° NW 02:00:07 19° N 02:04:16 10° NE visible
26 Apr - 03:44:07 10° NNW 03:48:41 22° NNE 03:53:11 10° ENE visible
26 Apr - 05:30:35 10° NNW 05:36:25 53° NE 05:42:05 10° ESE daylight
26 Apr - 07:17:14 10° NW 07:22:38 38° WSW 07:27:56 10° S daylight
26 Apr - 20:44:02 10° SSE 20:48:41 22° ESE 20:53:15 10° ENE visible
26 Apr - 22:28:10 10° SW 22:34:24 86° NW 22:40:29 10° NE visible
27 Apr - 00:16:16 10° W 00:21:34 29° NNW 00:26:45 10° NNE visible
27 Apr - 02:05:50 10° NW 02:09:55 18° N 02:13:57 10° NE visible
27 Apr - 03:53:32 10° NNW 03:58:25 25° NNE 04:03:12 10° E visible
27 Apr - 05:39:54 10° NW 05:45:50 69° NE 05:51:38 10° SE daylight
27 Apr - 07:26:51 10° NW 07:31:43 27° WSW 07:36:30 10° SSW daylight
27 Apr - 20:52:23 10° S 20:57:44 31° ESE 21:02:59 10° NE visible
27 Apr - 22:37:36 10° SW 22:43:46 66° NW 22:49:48 10° NE visible
28 Apr - 00:26:16 10° WNW 00:31:14 25° NNW 00:36:06 10° NNE visible
28 Apr - 02:15:40 10° NW 02:19:44 18° N 02:23:45 10° NE visible
28 Apr - 04:02:54 10° NNW 04:08:04 29° NNE 04:13:09 10° E daylight
28 Apr - 05:49:14 10° NW 05:55:10 89° WSW 06:01:00 10° SE daylight
28 Apr - 07:36:42 10° WNW 07:40:43 19° WSW 07:44:42 10° SSW daylight
28 Apr - 21:01:03 10° S 21:06:52 43° ESE 21:12:33 10° NE visible
28 Apr - 22:47:12 10° WSW 22:53:12 51° NW 22:59:05 10° NNE visible
